This is the latest recevied weather packets stored in our database for station/object DG2GGP-11. If no packets are shown the sender has not sent any weather packets the latest 10 day(s).
| Time | Temp. | Humidity | Pressure | Rain* | Wind** | Luminosity | Snow |
|---|---|---|---|---|---|---|---|
| 1788553202 | 22.78° C | 60% | 1019.4 hPa | 0 mm | - | 0 W/m² | - |
| 1788552602 | 22.78° C | 60% | 1019.4 hPa | 0 mm | - | 0 W/m² | - |
| 1788552002 | 22.22° C | 60% | 1019.3 hPa | 0 mm | - | 0 W/m² | - |
| 1788551402 | 22.22° C | 60% | 1019.3 hPa | 0 mm | - | 0 W/m² | - |
| 1788550802 | 22.22° C | 60% | 1019.3 hPa | 0 mm | - | 0 W/m² | - |
| 1788550202 | 22.22° C | 60% | 1019.3 hPa | 0 mm | - | 0 W/m² | - |
| 1788549602 | 22.22° C | 60% | 1019.2 hPa | 0 mm | - | 0 W/m² | - |
| 1788549002 | 22.78° C | 59% | 1019.1 hPa | 0 mm | - | 0 W/m² | - |
| 1788548402 | 22.78° C | 58% | 1019.1 hPa | 0 mm | - | 0 W/m² | - |
| 1788547802 | 23.33° C | 57% | 1018.9 hPa | 0 mm | - | 0 W/m² | - |
| 1788547202 | 23.89° C | 56% | 1018.8 hPa | 0 mm | - | 0 W/m² | - |
| 1788546604 | 23.89° C | 55% | 1018.8 hPa | 0 mm | - | 0 W/m² | - |
| 1788546002 | 24.44° C | 54% | 1018.6 hPa | 0 mm | - | 0 W/m² | - |
| 1788545402 | 25° C | 53% | 1018.5 hPa | 0 mm | - | 0 W/m² | - |
| 1788544802 | 25° C | 52% | 1018.5 hPa | 0 mm | - | 0 W/m² | - |
| 1788544202 | 25.56° C | 51% | 1018.4 hPa | 0 mm | - | 0 W/m² | - |
| 1788543602 | 26.11° C | 50% | 1018.2 hPa | 0 mm | - | 1 W/m² | - |
| 1788543002 | 26.11° C | 49% | 1018.3 hPa | 0 mm | - | 1 W/m² | - |
| 1788542402 | 26.67° C | 48% | 1018.3 hPa | 0 mm | - | 2 W/m² | - |
| 1788541802 | 26.67° C | 47% | 1018.3 hPa | 0 mm | - | 2 W/m² | - |
| 1788541202 | 27.22° C | 46% | 1018.2 hPa | 0 mm | - | 3 W/m² | - |
| 1788540602 | 27.78° C | 46% | 1018.2 hPa | 0 mm | - | 3 W/m² | - |
| 1788540002 | 27.78° C | 45% | 1018.1 hPa | 0 mm | - | 4 W/m² | - |
| 1788539402 | 28.89° C | 43% | 1018.2 hPa | 0 mm | - | 4 W/m² | - |
| 1788538802 | 28.89° C | 43% | 1018.2 hPa | 0 mm | - | 22 W/m² | - |
* Rain latest hour (hover to see other rain measurements)
** Current wind speed in m/s (hover to see current wind gust speed)